Time,TemperatureF,DewpointF,PressureIn,WindDirection,WindDirectionDegrees,WindSpeedMPH,WindSpeedGustMPH,Humidity,HourlyPrecipIn,Conditions,Clouds,dailyrainin,SoftwareType,DateUTC
2013-10-13 00:00:00,55.6,53.0,30.16,NNE,17,7.0,7.0,91,0.00,,,0.02,Wunderground v.1.15,2013-10-13 04:00:00,
2013-10-13 00:05:00,55.6,53.0,30.16,NNE,22,7.0,9.0,91,0.00,,,0.00,Wunderground v.1.15,2013-10-13 04:05:00,
2013-10-13 00:10:00,55.5,52.9,30.16,NE,34,7.0,7.0,91,0.00,,,0.00,Wunderground v.1.15,2013-10-13 04:10:00,
2013-10-13 00:14:00,55.5,52.9,30.15,NE,54,8.0,10.0,91,0.00,,,0.00,Wunderground v.1.15,2013-10-13 04:14:00,
2013-10-13 00:19:00,55.4,52.8,30.15,North,5,9.0,11.0,91,0.00,,,0.00,Wunderground v.1.15,2013-10-13 04:19:00,
2013-10-13 00:25:00,55.4,52.8,30.15,North,5,8.0,11.0,91,0.00,,,0.00,Wunderground v.1.15,2013-10-13 04:25:00,
2013-10-13 00:34:00,55.3,52.7,30.15,NNE,23,7.0,8.0,91,0.00,,,0.00,Wunderground v.1.15,2013-10-13 04:34:00,
2013-10-13 00:39:00,55.3,52.7,30.16,NNE,23,6.0,6.0,91,0.00,,,0.00,Wunderground v.1.15,2013-10-13 04:39:00,
2013-10-13 00:44:00,55.3,52.7,30.16,North,360,5.0,7.0,91,0.00,,,0.00,Wunderground v.1.15,2013-10-13 04:44:00,
2013-10-13 00:49:00,55.2,52.6,30.16,NNE,13,6.0,6.0,91,0.00,,,0.00,Wunderground v.1.15,2013-10-13 04:49:00,
2013-10-13 00:54:00,55.1,52.5,30.16,NNE,13,6.0,7.0,91,0.00,,,0.00,Wunderground v.1.15,2013-10-13 04:54:00,
2013-10-13 00:59:00,55.1,52.5,30.16,NNE,17,7.0,7.0,91,0.00,,,0.00,Wunderground v.1.15,2013-10-13 04:59:00,
2013-10-13 01:05:00,55.0,52.4,30.16,NNE,25,6.0,7.0,91,0.00,,,0.00,Wunderground v.1.15,2013-10-13 05:05:00,
2013-10-13 01:10:00,55.0,52.4,30.16,NNE,18,6.0,6.0,91,0.00,,,0.00,Wunderground v.1.15,2013-10-13 05:10:00,
2013-10-13 01:19:00,55.0,52.4,30.16,NNE,14,6.0,6.0,91,0.00,,,0.00,Wunderground v.1.15,2013-10-13 05:19:00,
2013-10-13 01:24:00,54.9,52.3,30.16,NNE,21,7.0,10.0,91,0.00,,,0.01,Wunderground v.1.15,2013-10-13 05:24:00,
2013-10-13 01:34:00,54.7,52.1,30.16,NNE,19,8.0,10.0,91,0.00,,,0.01,Wunderground v.1.15,2013-10-13 05:34:00,
2013-10-13 01:39:00,54.7,52.1,30.16,North,5,7.0,9.0,91,0.00,,,0.01,Wunderground v.1.15,2013-10-13 05:39:00,
2013-10-13 01:44:00,54.6,52.0,30.16,NNE,16,7.0,9.0,91,0.00,,,0.01,Wunderground v.1.15,2013-10-13 05:44:00,
2013-10-13 01:49:00,54.5,51.9,30.16,NNE,23,7.0,7.0,91,0.00,,,0.01,Wunderground v.1.15,2013-10-13 05:49:00,
2013-10-13 01:54:00,54.5,51.9,30.17,North,5,7.0,7.0,91,0.00,,,0.01,Wunderground v.1.15,2013-10-13 05:54:00,
2013-10-13 02:04:00,54.5,51.9,30.17,NNE,33,6.0,7.0,91,0.00,,,0.01,Wunderground v.1.15,2013-10-13 06:04:00,
2013-10-13 02:09:00,54.4,51.8,30.17,NNE,17,5.0,5.0,91,0.00,,,0.01,Wunderground v.1.15,2013-10-13 06:09:00,
2013-10-13 02:15:00,54.4,51.8,30.17,NNE,23,5.0,5.0,91,0.00,,,0.01,Wunderground v.1.15,2013-10-13 06:15:00,
2013-10-13 02:20:00,54.4,51.8,30.17,NNE,23,4.0,4.0,91,0.00,,,0.01,Wunderground v.1.15,2013-10-13 06:20:00,
2013-10-13 02:25:00,54.4,51.8,30.17,NNE,17,3.0,4.0,91,0.00,,,0.01,Wunderground v.1.15,2013-10-13 06:25:00,
2013-10-13 02:30:00,54.4,51.8,30.17,NNE,17,3.0,5.0,91,0.00,,,0.01,Wunderground v.1.15,2013-10-13 06:30:00,
2013-10-13 02:35:00,54.4,51.8,30.17,NNE,17,3.0,5.0,91,0.00,,,0.01,Wunderground v.1.15,2013-10-13 06:35:00,
2013-10-13 02:40:00,54.4,51.8,30.17,NNE,17,4.0,4.0,91,0.00,,,0.01,Wunderground v.1.15,2013-10-13 06:40:00,
2013-10-13 02:49:00,54.4,51.8,30.17,NNE,17,3.0,3.0,91,0.00,,,0.02,Wunderground v.1.15,2013-10-13 06:49:00,
2013-10-13 02:54:00,54.4,51.8,30.17,NNE,17,3.0,5.0,91,0.00,,,0.02,Wunderground v.1.15,2013-10-13 06:54:00,
2013-10-13 02:59:00,54.4,51.8,30.17,NNE,17,3.0,4.0,91,0.00,,,0.02,Wunderground v.1.15,2013-10-13 06:59:00,
2013-10-13 03:04:00,54.4,51.8,30.17,NNE,32,4.0,4.0,91,0.00,,,0.02,Wunderground v.1.15,2013-10-13 07:04:00,
2013-10-13 03:14:00,54.4,51.8,30.17,NNE,23,4.0,5.0,91,0.00,,,0.02,Wunderground v.1.15,2013-10-13 07:14:00,
2013-10-13 03:19:00,54.4,51.8,30.17,NNE,19,5.0,6.0,91,0.00,,,0.02,Wunderground v.1.15,2013-10-13 07:19:00,
2013-10-13 03:24:00,54.4,51.8,30.17,NNE,20,5.0,6.0,91,0.00,,,0.02,Wunderground v.1.15,2013-10-13 07:24:00,
2013-10-13 03:29:00,54.4,51.8,30.17,NNE,20,4.0,5.0,91,0.00,,,0.02,Wunderground v.1.15,2013-10-13 07:29:00,
2013-10-13 03:35:00,54.3,51.7,30.17,NNE,28,4.0,5.0,91,0.00,,,0.02,Wunderground v.1.15,2013-10-13 07:35:00,
2013-10-13 03:44:00,54.4,51.8,30.17,NNE,29,4.0,5.0,91,0.00,,,0.02,Wunderground v.1.15,2013-10-13 07:44:00,
2013-10-13 03:50:00,54.4,51.8,30.17,NNE,24,4.0,4.0,91,0.00,,,0.03,Wunderground v.1.15,2013-10-13 07:50:00,
2013-10-13 03:55:00,54.4,51.8,30.17,NNE,22,4.0,6.0,91,0.00,,,0.03,Wunderground v.1.15,2013-10-13 07:55:00,
2013-10-13 04:04:00,54.4,51.8,30.17,NNE,32,5.0,6.0,91,0.00,,,0.03,Wunderground v.1.15,2013-10-13 08:04:00,
2013-10-13 04:09:00,54.3,51.7,30.17,NNE,22,5.0,5.0,91,0.00,,,0.03,Wunderground v.1.15,2013-10-13 08:09:00,
2013-10-13 04:19:00,54.2,51.6,30.17,NNE,19,6.0,6.0,91,0.00,,,0.03,Wunderground v.1.15,2013-10-13 08:19:00,
2013-10-13 04:24:00,54.2,51.6,30.17,NNE,24,6.0,7.0,91,0.00,,,0.03,Wunderground v.1.15,2013-10-13 08:24:00,
2013-10-13 04:29:00,54.2,51.6,30.17,NNE,17,6.0,8.0,91,0.00,,,0.03,Wunderground v.1.15,2013-10-13 08:29:00,
2013-10-13 04:34:00,54.2,51.6,30.17,NNE,19,7.0,8.0,91,0.00,,,0.03,Wunderground v.1.15,2013-10-13 08:34:00,
2013-10-13 04:39:00,54.1,51.5,30.17,NNE,22,8.0,8.0,91,0.00,,,0.03,Wunderground v.1.15,2013-10-13 08:39:00,
2013-10-13 04:45:00,54.1,51.5,30.17,NNE,23,7.0,8.0,91,0.00,,,0.03,Wunderground v.1.15,2013-10-13 08:45:00,
2013-10-13 04:50:00,54.1,51.5,30.17,NNE,14,7.0,7.0,91,0.00,,,0.03,Wunderground v.1.15,2013-10-13 08:50:00,
2013-10-13 04:59:00,54.1,51.5,30.17,NNE,29,5.0,6.0,91,0.00,,,0.03,Wunderground v.1.15,2013-10-13 08:59:00,
2013-10-13 05:04:00,54.1,51.5,30.17,NNE,20,5.0,6.0,91,0.00,,,0.03,Wunderground v.1.15,2013-10-13 09:04:00,
2013-10-13 05:09:00,54.1,51.5,30.17,NNE,24,5.0,5.0,91,0.00,,,0.03,Wunderground v.1.15,2013-10-13 09:09:00,
2013-10-13 05:14:00,54.1,51.5,30.17,NNE,22,5.0,5.0,91,0.00,,,0.03,Wunderground v.1.15,2013-10-13 09:14:00,
2013-10-13 05:19:00,54.0,51.4,30.18,NNE,18,6.0,6.0,91,0.00,,,0.03,Wunderground v.1.15,2013-10-13 09:19:00,
2013-10-13 05:25:00,54.0,51.4,30.18,NE,36,7.0,7.0,91,0.00,,,0.03,Wunderground v.1.15,2013-10-13 09:25:00,
2013-10-13 05:30:00,53.9,51.3,30.18,NNE,17,7.0,7.0,91,0.00,,,0.03,Wunderground v.1.15,2013-10-13 09:30:00,
2013-10-13 05:40:00,53.9,51.3,30.18,NNE,13,6.0,6.0,91,0.00,,,0.03,Wunderground v.1.15,2013-10-13 09:40:00,
2013-10-13 05:45:00,53.9,51.3,30.19,NE,34,6.0,6.0,91,0.00,,,0.03,Wunderground v.1.15,2013-10-13 09:45:00,
2013-10-13 05:54:00,53.8,51.2,30.19,NNE,12,5.0,7.0,91,0.00,,,0.03,Wunderground v.1.15,2013-10-13 09:54:00,
2013-10-13 05:59:00,53.7,51.1,30.19,NE,34,5.0,5.0,91,0.00,,,0.03,Wunderground v.1.15,2013-10-13 09:59:00,
2013-10-13 06:04:00,53.7,51.1,30.19,NNE,30,5.0,5.0,91,0.00,,,0.03,Wunderground v.1.15,2013-10-13 10:04:00,
2013-10-13 06:10:00,53.6,51.0,30.19,NE,34,5.0,5.0,91,0.00,,,0.03,Wunderground v.1.15,2013-10-13 10:10:00,
2013-10-13 06:19:00,53.6,51.0,30.19,NE,46,4.0,4.0,91,0.00,,,0.03,Wunderground v.1.15,2013-10-13 10:19:00,
2013-10-13 06:24:00,53.6,51.0,30.19,NE,43,4.0,7.0,91,0.00,,,0.03,Wunderground v.1.15,2013-10-13 10:24:00,
2013-10-13 06:29:00,53.5,50.9,30.20,NNE,30,5.0,5.0,91,0.00,,,0.03,Wunderground v.1.15,2013-10-13 10:29:00,
2013-10-13 06:34:00,53.5,50.9,30.20,NE,38,5.0,7.0,91,0.00,,,0.03,Wunderground v.1.15,2013-10-13 10:34:00,
2013-10-13 06:44:00,53.4,50.8,30.20,NNE,22,5.0,5.0,91,0.00,,,0.03,Wunderground v.1.15,2013-10-13 10:44:00,
2013-10-13 06:49:00,53.4,50.8,30.20,NNE,26,5.0,5.0,91,0.00,,,0.03,Wunderground v.1.15,2013-10-13 10:49:00,
2013-10-13 06:54:00,53.3,50.7,30.20,NE,37,5.0,5.0,91,0.00,,,0.03,Wunderground v.1.15,2013-10-13 10:54:00,
2013-10-13 06:59:00,53.3,50.7,30.20,NNE,18,5.0,5.0,91,0.00,,,0.03,Wunderground v.1.15,2013-10-13 10:59:00,
2013-10-13 07:04:00,53.3,50.7,30.21,NE,41,5.0,5.0,91,0.00,,,0.03,Wunderground v.1.15,2013-10-13 11:04:00,
2013-10-13 07:10:00,53.2,50.6,30.20,NE,40,5.0,5.0,91,0.00,,,0.03,Wunderground v.1.15,2013-10-13 11:10:00,
2013-10-13 07:19:00,53.3,50.7,30.21,NE,38,5.0,5.0,91,0.00,,,0.03,Wunderground v.1.15,2013-10-13 11:19:00,
2013-10-13 07:24:00,53.2,50.6,30.22,NNE,28,5.0,6.0,91,0.00,,,0.03,Wunderground v.1.15,2013-10-13 11:24:00,
2013-10-13 07:29:00,53.2,50.6,30.22,NNE,22,6.0,6.0,91,0.00,,,0.04,Wunderground v.1.15,2013-10-13 11:29:00,
2013-10-13 07:34:00,53.1,50.5,30.21,NE,42,6.0,9.0,91,0.00,,,0.04,Wunderground v.1.15,2013-10-13 11:34:00,
2013-10-13 07:44:00,53.1,50.5,30.21,NNE,17,7.0,9.0,91,0.05,,,0.05,Wunderground v.1.15,2013-10-13 11:44:00,
2013-10-13 07:49:00,53.1,50.5,30.22,NE,34,6.0,6.0,91,0.05,,,0.05,Wunderground v.1.15,2013-10-13 11:49:00,
2013-10-13 07:59:00,53.1,50.5,30.22,NNE,21,6.0,6.0,91,0.00,,,0.05,Wunderground v.1.15,2013-10-13 11:59:00,
2013-10-13 08:04:00,53.2,50.6,30.22,NE,35,6.0,6.0,91,0.00,,,0.05,Wunderground v.1.15,2013-10-13 12:04:00,
2013-10-13 08:10:00,53.1,50.5,30.23,NE,36,7.0,7.0,91,0.00,,,0.05,Wunderground v.1.15,2013-10-13 12:10:00,
2013-10-13 08:15:00,53.1,50.5,30.23,NNE,27,7.0,7.0,91,0.00,,,0.05,Wunderground v.1.15,2013-10-13 12:15:00,
2013-10-13 08:24:00,53.2,50.6,30.23,NNE,32,7.0,10.0,91,0.00,,,0.05,Wunderground v.1.15,2013-10-13 12:24:00,
2013-10-13 08:34:00,53.2,50.6,30.23,NNE,16,7.0,8.0,91,0.00,,,0.05,Wunderground v.1.15,2013-10-13 12:34:00,
2013-10-13 08:39:00,53.3,50.7,30.23,NE,42,7.0,7.0,91,0.00,,,0.05,Wunderground v.1.15,2013-10-13 12:39:00,
2013-10-13 08:44:00,53.3,50.7,30.24,NNE,17,7.0,9.0,91,0.00,,,0.05,Wunderground v.1.15,2013-10-13 12:44:00,
2013-10-13 08:49:00,53.2,50.6,30.24,NNE,27,7.0,7.0,91,0.00,,,0.05,Wunderground v.1.15,2013-10-13 12:49:00,
2013-10-13 08:55:00,53.3,50.7,30.24,North,10,7.0,7.0,91,0.00,,,0.05,Wunderground v.1.15,2013-10-13 12:55:00,
2013-10-13 09:04:00,53.4,50.8,30.24,NE,46,6.0,8.0,91,0.00,,,0.05,Wunderground v.1.15,2013-10-13 13:04:00,
2013-10-13 09:09:00,53.5,50.9,30.25,North,9,7.0,9.0,91,0.00,,,0.05,Wunderground v.1.15,2013-10-13 13:09:00,
2013-10-13 09:14:00,53.4,50.8,30.25,NNE,15,7.0,9.0,91,0.00,,,0.05,Wunderground v.1.15,2013-10-13 13:14:00,
2013-10-13 09:19:00,53.5,50.9,30.25,NNE,31,7.0,7.0,91,0.00,,,0.05,Wunderground v.1.15,2013-10-13 13:19:00,
2013-10-13 09:25:00,53.7,51.1,30.25,NE,37,7.0,7.0,91,0.00,,,0.05,Wunderground v.1.15,2013-10-13 13:25:00,
2013-10-13 09:30:00,53.8,51.2,30.25,NE,46,6.0,7.0,91,0.00,,,0.05,Wunderground v.1.15,2013-10-13 13:30:00,
2013-10-13 09:35:00,53.7,51.1,30.25,NNE,18,7.0,7.0,91,0.00,,,0.05,Wunderground v.1.15,2013-10-13 13:35:00,
2013-10-13 09:45:00,53.9,51.3,30.25,North,11,7.0,8.0,91,0.00,,,0.05,Wunderground v.1.15,2013-10-13 13:45:00,
2013-10-13 09:50:00,54.0,51.4,30.26,NNE,22,7.0,7.0,91,0.00,,,0.05,Wunderground v.1.15,2013-10-13 13:50:00,
2013-10-13 09:59:00,54.1,51.5,30.26,NNE,24,7.0,8.0,91,0.00,,,0.05,Wunderground v.1.15,2013-10-13 13:59:00,
2013-10-13 10:04:00,53.9,51.3,30.25,NNE,15,8.0,8.0,91,0.00,,,0.05,Wunderground v.1.15,2013-10-13 14:04:00,
2013-10-13 10:09:00,54.0,51.4,30.26,NNE,22,9.0,12.0,91,0.00,,,0.05,Wunderground v.1.15,2013-10-13 14:09:00,
2013-10-13 10:14:00,54.0,51.4,30.25,NNE,24,9.0,12.0,91,0.00,,,0.05,Wunderground v.1.15,2013-10-13 14:14:00,
2013-10-13 10:19:00,53.9,51.3,30.26,NNE,22,10.0,10.0,91,0.00,,,0.05,Wunderground v.1.15,2013-10-13 14:19:00,
2013-10-13 10:29:00,54.0,51.4,30.26,NNE,13,9.0,9.0,91,0.00,,,0.05,Wunderground v.1.15,2013-10-13 14:29:00,
2013-10-13 10:34:00,54.5,51.9,30.26,NNE,28,8.0,9.0,91,0.00,,,0.05,Wunderground v.1.15,2013-10-13 14:34:00,
2013-10-13 10:39:00,54.5,51.9,30.26,NNE,27,8.0,9.0,91,0.00,,,0.05,Wunderground v.1.15,2013-10-13 14:39:00,
2013-10-13 10:45:00,54.5,51.9,30.26,NNW,340,8.0,9.0,91,0.00,,,0.05,Wunderground v.1.15,2013-10-13 14:45:00,
2013-10-13 10:50:00,54.5,51.9,30.26,NNE,19,8.0,8.0,91,0.00,,,0.05,Wunderground v.1.15,2013-10-13 14:50:00,
2013-10-13 10:59:00,54.3,51.7,30.26,NNE,13,9.0,9.0,91,0.00,,,0.05,Wunderground v.1.15,2013-10-13 14:59:00,
2013-10-13 11:04:00,54.4,51.8,30.26,NNE,22,8.0,9.0,91,0.00,,,0.05,Wunderground v.1.15,2013-10-13 15:04:00,
2013-10-13 11:09:00,54.4,51.8,30.26,NE,50,8.0,8.0,91,0.00,,,0.05,Wunderground v.1.15,2013-10-13 15:09:00,
2013-10-13 11:14:00,54.3,51.7,30.26,NNE,20,8.0,8.0,91,0.00,,,0.05,Wunderground v.1.15,2013-10-13 15:14:00,
2013-10-13 11:20:00,54.5,51.9,30.26,NNE,24,8.0,8.0,91,0.00,,,0.05,Wunderground v.1.15,2013-10-13 15:20:00,
2013-10-13 11:30:00,54.6,52.0,30.26,NNE,15,7.0,7.0,91,0.00,,,0.05,Wunderground v.1.15,2013-10-13 15:30:00,
2013-10-13 11:40:00,54.8,52.2,30.26,NNE,20,8.0,8.0,91,0.00,,,0.05,Wunderground v.1.15,2013-10-13 15:40:00,
2013-10-13 11:45:00,55.2,52.6,30.26,North,11,7.0,8.0,91,0.00,,,0.05,Wunderground v.1.15,2013-10-13 15:45:00,
2013-10-13 11:50:00,55.3,52.7,30.26,NE,38,6.0,6.0,91,0.00,,,0.05,Wunderground v.1.15,2013-10-13 15:50:00,
2013-10-13 11:59:00,54.9,52.3,30.26,North,11,7.0,7.0,91,0.00,,,0.05,Wunderground v.1.15,2013-10-13 15:59:00,
2013-10-13 12:04:00,55.1,52.5,30.26,North,11,7.0,7.0,91,0.00,,,0.05,Wunderground v.1.15,2013-10-13 16:04:00,
2013-10-13 12:10:00,55.2,52.6,30.26,NNE,29,7.0,7.0,91,0.00,,,0.05,Wunderground v.1.15,2013-10-13 16:10:00,
2013-10-13 12:20:00,55.3,52.7,30.26,NNE,25,6.0,6.0,91,0.00,,,0.05,Wunderground v.1.15,2013-10-13 16:20:00,
2013-10-13 12:29:00,55.9,53.3,30.26,NE,37,6.0,6.0,91,0.00,,,0.05,Wunderground v.1.15,2013-10-13 16:29:00,
2013-10-13 12:34:00,56.0,53.4,30.26,NNE,14,7.0,8.0,91,0.00,,,0.05,Wunderground v.1.15,2013-10-13 16:34:00,
2013-10-13 12:39:00,55.9,53.3,30.26,NE,49,7.0,10.0,91,0.00,,,0.05,Wunderground v.1.15,2013-10-13 16:39:00,
2013-10-13 12:44:00,55.9,53.3,30.26,NE,42,7.0,10.0,91,0.00,,,0.05,Wunderground v.1.15,2013-10-13 16:44:00,
2013-10-13 12:54:00,56.5,53.9,30.26,NNE,18,7.0,10.0,91,0.00,,,0.05,Wunderground v.1.15,2013-10-13 16:54:00,
2013-10-13 12:59:00,56.5,53.9,30.26,North,360,8.0,8.0,91,0.00,,,0.05,Wunderground v.1.15,2013-10-13 16:59:00,
2013-10-13 13:05:00,56.4,53.8,30.26,NNE,16,8.0,11.0,91,0.00,,,0.05,Wunderground v.1.15,2013-10-13 17:05:00,
2013-10-13 13:10:00,56.2,53.6,30.26,NE,42,9.0,9.0,91,0.00,,,0.05,Wunderground v.1.15,2013-10-13 17:10:00,
2013-10-13 13:15:00,56.0,53.4,30.25,NNE,22,10.0,10.0,91,0.00,,,0.05,Wunderground v.1.15,2013-10-13 17:15:00,
2013-10-13 13:20:00,55.4,52.8,30.25,NNE,20,9.0,9.0,91,0.00,,,0.05,Wunderground v.1.15,2013-10-13 17:20:00,
2013-10-13 13:30:00,55.4,52.8,30.25,North,5,9.0,10.0,91,0.00,,,0.05,Wunderground v.1.15,2013-10-13 17:30:00,
2013-10-13 13:39:00,55.6,53.0,30.25,NNE,26,9.0,10.0,91,0.00,,,0.05,Wunderground v.1.15,2013-10-13 17:39:00,
2013-10-13 13:44:00,55.8,53.2,30.25,NNE,18,9.0,10.0,91,0.00,,,0.05,Wunderground v.1.15,2013-10-13 17:44:00,
2013-10-13 13:49:00,55.9,53.3,30.25,NNE,17,8.0,8.0,91,0.00,,,0.05,Wunderground v.1.15,2013-10-13 17:49:00,
2013-10-13 13:54:00,56.1,53.5,30.25,NNE,18,8.0,9.0,91,0.00,,,0.05,Wunderground v.1.15,2013-10-13 17:54:00,
2013-10-13 14:05:00,56.4,53.5,30.24,ENE,57,8.0,9.0,90,0.00,,,0.05,Wunderground v.1.15,2013-10-13 18:05:00,
2013-10-13 14:10:00,56.5,53.6,30.24,North,5,8.0,11.0,90,0.00,,,0.05,Wunderground v.1.15,2013-10-13 18:10:00,
2013-10-13 14:15:00,56.7,53.8,30.24,NNE,17,8.0,11.0,90,0.00,,,0.05,Wunderground v.1.15,2013-10-13 18:15:00,
2013-10-13 14:24:00,57.3,54.1,30.24,NNE,18,7.0,8.0,89,0.00,,,0.05,Wunderground v.1.15,2013-10-13 18:24:00,
2013-10-13 14:29:00,57.0,53.8,30.24,NNE,20,7.0,7.0,89,0.00,,,0.05,Wunderground v.1.15,2013-10-13 18:29:00,
2013-10-13 14:34:00,57.2,54.0,30.24,NNE,16,8.0,12.0,89,0.00,,,0.05,Wunderground v.1.15,2013-10-13 18:34:00,
2013-10-13 14:39:00,57.5,54.6,30.24,NE,35,8.0,8.0,90,0.00,,,0.05,Wunderground v.1.15,2013-10-13 18:39:00,
2013-10-13 14:45:00,57.5,54.3,30.24,North,11,8.0,8.0,89,0.00,,,0.05,Wunderground v.1.15,2013-10-13 18:45:00,
2013-10-13 14:50:00,57.6,54.4,30.24,NNE,32,7.0,7.0,89,0.00,,,0.05,Wunderground v.1.15,2013-10-13 18:50:00,
2013-10-13 14:55:00,57.7,54.5,30.24,NNE,16,7.0,9.0,89,0.00,,,0.05,Wunderground v.1.15,2013-10-13 18:55:00,
2013-10-13 15:00:00,57.6,54.4,30.24,NNE,19,7.0,8.0,89,0.00,,,0.05,Wunderground v.1.15,2013-10-13 19:00:00,
2013-10-13 15:09:00,57.2,54.0,30.24,NNE,19,7.0,8.0,89,0.00,,,0.05,Wunderground v.1.15,2013-10-13 19:09:00,
2013-10-13 15:14:00,57.2,54.0,30.24,North,9,7.0,8.0,89,0.00,,,0.05,Wunderground v.1.15,2013-10-13 19:14:00,
2013-10-13 15:19:00,57.5,54.3,30.24,NNW,340,5.0,6.0,89,0.00,,,0.05,Wunderground v.1.15,2013-10-13 19:19:00,
2013-10-13 15:24:00,57.5,54.3,30.24,NNE,23,5.0,6.0,89,0.00,,,0.05,Wunderground v.1.15,2013-10-13 19:24:00,
2013-10-13 15:29:00,57.6,54.4,30.24,NNE,20,6.0,7.0,89,0.00,,,0.05,Wunderground v.1.15,2013-10-13 19:29:00,
2013-10-13 15:34:00,57.6,54.1,30.24,NNE,13,6.0,7.0,88,0.00,,,0.05,Wunderground v.1.15,2013-10-13 19:34:00,
2013-10-13 15:40:00,57.7,54.5,30.24,North,5,7.0,7.0,89,0.00,,,0.05,Wunderground v.1.15,2013-10-13 19:40:00,
2013-10-13 15:49:00,57.9,54.4,30.24,North,11,6.0,7.0,88,0.00,,,0.05,Wunderground v.1.15,2013-10-13 19:49:00,
2013-10-13 15:54:00,57.9,54.4,30.24,NNE,21,6.0,7.0,88,0.00,,,0.05,Wunderground v.1.15,2013-10-13 19:54:00,
2013-10-13 15:59:00,58.1,54.9,30.24,NE,34,4.0,4.0,89,0.00,,,0.05,Wunderground v.1.15,2013-10-13 19:59:00,
2013-10-13 16:04:00,58.0,54.5,30.24,NNE,22,4.0,6.0,88,0.00,,,0.05,Wunderground v.1.15,2013-10-13 20:04:00,
2013-10-13 16:10:00,57.7,54.2,30.24,NNE,27,6.0,7.0,88,0.00,,,0.05,Wunderground v.1.15,2013-10-13 20:10:00,
2013-10-13 16:20:00,57.6,54.4,30.24,NNE,33,5.0,6.0,89,0.00,,,0.05,Wunderground v.1.15,2013-10-13 20:20:00,
2013-10-13 16:25:00,57.6,54.4,30.24,NNE,19,6.0,7.0,89,0.00,,,0.05,Wunderground v.1.15,2013-10-13 20:25:00,
2013-10-13 16:34:00,57.2,54.0,30.24,NNE,22,6.0,8.0,89,0.00,,,0.05,Wunderground v.1.15,2013-10-13 20:34:00,
2013-10-13 16:39:00,57.1,53.9,30.24,NNE,18,6.0,6.0,89,0.00,,,0.05,Wunderground v.1.15,2013-10-13 20:39:00,
2013-10-13 16:44:00,57.1,53.9,30.24,NNE,30,5.0,6.0,89,0.00,,,0.05,Wunderground v.1.15,2013-10-13 20:44:00,
2013-10-13 16:54:00,57.0,54.1,30.25,NNE,17,5.0,6.0,90,0.00,,,0.05,Wunderground v.1.15,2013-10-13 20:54:00,
2013-10-13 16:59:00,56.9,54.0,30.24,NNE,15,5.0,5.0,90,0.00,,,0.05,Wunderground v.1.15,2013-10-13 20:59:00,
2013-10-13 17:04:00,56.8,53.6,30.25,NE,43,5.0,5.0,89,0.00,,,0.05,Wunderground v.1.15,2013-10-13 21:04:00,
2013-10-13 17:09:00,56.8,53.9,30.25,NNE,24,5.0,5.0,90,0.00,,,0.05,Wunderground v.1.15,2013-10-13 21:09:00,
2013-10-13 17:14:00,56.8,53.9,30.25,NNE,12,5.0,5.0,90,0.00,,,0.05,Wunderground v.1.15,2013-10-13 21:14:00,
2013-10-13 17:19:00,56.8,53.9,30.25,NE,48,5.0,5.0,90,0.00,,,0.05,Wunderground v.1.15,2013-10-13 21:19:00,
2013-10-13 17:29:00,56.7,53.8,30.25,NE,56,5.0,5.0,90,0.00,,,0.05,Wunderground v.1.15,2013-10-13 21:29:00,
2013-10-13 17:34:00,56.8,53.9,30.25,NE,46,4.0,5.0,90,0.00,,,0.05,Wunderground v.1.15,2013-10-13 21:34:00,
2013-10-13 17:40:00,56.9,54.0,30.25,NE,49,4.0,4.0,90,0.00,,,0.05,Wunderground v.1.15,2013-10-13 21:40:00,
2013-10-13 17:45:00,56.9,54.0,30.25,NNE,26,4.0,4.0,90,0.00,,,0.05,Wunderground v.1.15,2013-10-13 21:45:00,
2013-10-13 17:50:00,56.9,54.0,30.26,NNE,24,4.0,6.0,90,0.00,,,0.05,Wunderground v.1.15,2013-10-13 21:50:00,
2013-10-13 17:59:00,56.8,53.9,30.26,North,5,6.0,6.0,90,0.00,,,0.05,Wunderground v.1.15,2013-10-13 21:59:00,
2013-10-13 18:04:00,56.8,53.9,30.26,NNE,14,6.0,6.0,90,0.00,,,0.05,Wunderground v.1.15,2013-10-13 22:04:00,
2013-10-13 18:09:00,56.7,53.8,30.26,NNE,26,6.0,6.0,90,0.00,,,0.05,Wunderground v.1.15,2013-10-13 22:09:00,
2013-10-13 18:14:00,56.5,53.6,30.26,NNE,20,7.0,7.0,90,0.00,,,0.05,Wunderground v.1.15,2013-10-13 22:14:00,
2013-10-13 18:20:00,56.3,53.4,30.26,NE,43,6.0,8.0,90,0.00,,,0.05,Wunderground v.1.15,2013-10-13 22:20:00,
2013-10-13 18:25:00,56.0,53.1,30.26,NNE,24,6.0,8.0,90,0.00,,,0.05,Wunderground v.1.15,2013-10-13 22:25:00,
2013-10-13 18:35:00,55.8,53.2,30.26,NE,36,5.0,6.0,91,0.00,,,0.05,Wunderground v.1.15,2013-10-13 22:35:00,
2013-10-13 18:40:00,55.7,53.1,30.26,NNE,12,5.0,5.0,91,0.00,,,0.05,Wunderground v.1.15,2013-10-13 22:40:00,
2013-10-13 18:45:00,55.6,53.0,30.26,NNE,15,5.0,5.0,91,0.00,,,0.05,Wunderground v.1.15,2013-10-13 22:45:00,
2013-10-13 18:54:00,55.4,52.8,30.26,NNE,17,5.0,5.0,91,0.00,,,0.05,Wunderground v.1.15,2013-10-13 22:54:00,
2013-10-13 18:59:00,55.4,52.8,30.26,NNE,17,5.0,5.0,91,0.00,,,0.05,Wunderground v.1.15,2013-10-13 22:59:00,
2013-10-13 19:09:00,55.3,52.7,30.27,NNE,24,6.0,6.0,91,0.00,,,0.06,Wunderground v.1.15,2013-10-13 23:09:00,
2013-10-13 19:14:00,55.2,52.6,30.27,North,5,6.0,6.0,91,0.27,,,0.09,Wunderground v.1.15,2013-10-13 23:14:00,
2013-10-13 19:20:00,55.1,52.5,30.27,NNE,14,5.0,6.0,91,0.15,,,0.10,Wunderground v.1.15,2013-10-13 23:20:00,
2013-10-13 19:25:00,55.0,52.4,30.27,NNE,19,5.0,6.0,91,0.07,,,0.10,Wunderground v.1.15,2013-10-13 23:25:00,
2013-10-13 19:30:00,55.0,52.4,30.27,NNE,26,6.0,6.0,91,0.25,,,0.13,Wunderground v.1.15,2013-10-13 23:30:00,
2013-10-13 19:35:00,55.0,52.4,30.27,NNE,26,4.0,6.0,91,0.11,,,0.13,Wunderground v.1.15,2013-10-13 23:35:00,
2013-10-13 19:45:00,54.9,52.3,30.27,NNE,20,5.0,5.0,91,0.04,,,0.13,Wunderground v.1.15,2013-10-13 23:45:00,
2013-10-13 19:55:00,54.9,52.3,30.28,NNE,22,5.0,5.0,91,0.04,,,0.14,Wunderground v.1.15,2013-10-13 23:55:00,
2013-10-13 20:00:00,54.9,52.3,30.28,NNE,21,5.0,6.0,91,0.04,,,0.14,Wunderground v.1.15,2013-10-14 00:00:00,
2013-10-13 20:05:00,54.9,52.3,30.28,NNE,24,5.0,6.0,91,0.49,,,0.16,Wunderground v.1.15,2013-10-14 00:05:00,
2013-10-13 20:14:00,54.8,52.2,30.28,NNE,22,6.0,8.0,91,0.13,,,0.18,Wunderground v.1.15,2013-10-14 00:14:00,
2013-10-13 20:19:00,54.8,52.2,30.28,NNE,22,6.0,6.0,91,0.09,,,0.19,Wunderground v.1.15,2013-10-14 00:19:00,
2013-10-13 20:24:00,54.8,52.2,30.28,NNE,22,5.0,6.0,91,0.09,,,0.19,Wunderground v.1.15,2013-10-14 00:24:00,
2013-10-13 20:29:00,54.7,52.1,30.28,NNE,22,4.0,4.0,91,0.05,,,0.19,Wunderground v.1.15,2013-10-14 00:29:00,
2013-10-13 20:35:00,54.7,52.1,30.28,NNE,28,4.0,5.0,91,0.04,,,0.20,Wunderground v.1.15,2013-10-14 00:35:00,
2013-10-13 20:40:00,54.7,52.1,30.29,NNE,28,4.0,5.0,91,0.10,,,0.21,Wunderground v.1.15,2013-10-14 00:40:00,
2013-10-13 20:45:00,54.6,52.0,30.28,NNE,28,4.0,6.0,91,0.14,,,0.22,Wunderground v.1.15,2013-10-14 00:45:00,
2013-10-13 20:50:00,54.6,52.0,30.29,NNE,28,4.0,4.0,91,0.11,,,0.23,Wunderground v.1.15,2013-10-14 00:50:00,
2013-10-13 20:59:00,54.6,52.0,30.29,NNE,28,2.0,3.0,91,0.05,,,0.23,Wunderground v.1.15,2013-10-14 00:59:00,
2013-10-13 21:09:00,54.4,51.8,30.28,NNE,28,3.0,4.0,91,0.00,,,0.23,Wunderground v.1.15,2013-10-14 01:09:00,
2013-10-13 21:14:00,54.5,51.9,30.29,NNE,28,3.0,4.0,91,0.00,,,0.23,Wunderground v.1.15,2013-10-14 01:14:00,
2013-10-13 21:19:00,54.4,51.8,30.29,NNE,28,4.0,4.0,91,0.00,,,0.23,Wunderground v.1.15,2013-10-14 01:19:00,
2013-10-13 21:25:00,54.4,51.8,30.29,NNE,28,4.0,4.0,91,0.00,,,0.23,Wunderground v.1.15,2013-10-14 01:25:00,
2013-10-13 21:34:00,54.3,51.7,30.29,NNE,19,4.0,5.0,91,0.00,,,0.23,Wunderground v.1.15,2013-10-14 01:34:00,
2013-10-13 21:40:00,54.3,51.7,30.29,NNE,13,4.0,4.0,91,0.00,,,0.24,Wunderground v.1.15,2013-10-14 01:40:00,
2013-10-13 21:50:00,54.4,51.8,30.29,NNE,19,5.0,6.0,91,0.00,,,0.24,Wunderground v.1.15,2013-10-14 01:50:00,
2013-10-13 21:55:00,54.3,51.7,30.29,North,5,5.0,6.0,91,0.00,,,0.24,Wunderground v.1.15,2013-10-14 01:55:00,
2013-10-13 22:00:00,54.3,51.7,30.29,NNE,19,6.0,6.0,91,0.00,,,0.24,Wunderground v.1.15,2013-10-14 02:00:00,
2013-10-13 22:10:00,54.2,51.6,30.29,North,5,5.0,6.0,91,0.00,,,0.24,Wunderground v.1.15,2013-10-14 02:10:00,
2013-10-13 22:19:00,54.2,51.6,30.29,NNE,19,5.0,5.0,91,0.00,,,0.24,Wunderground v.1.15,2013-10-14 02:19:00,
2013-10-13 22:29:00,54.2,51.6,30.29,NNE,24,5.0,5.0,91,0.00,,,0.24,Wunderground v.1.15,2013-10-14 02:29:00,
2013-10-13 22:34:00,54.2,51.6,30.29,NNE,26,5.0,5.0,91,0.00,,,0.24,Wunderground v.1.15,2013-10-14 02:34:00,
2013-10-13 22:40:00,54.2,51.6,30.28,NNE,19,5.0,8.0,91,0.00,,,0.24,Wunderground v.1.15,2013-10-14 02:40:00,
2013-10-13 22:49:00,54.1,51.5,30.29,NNE,24,5.0,5.0,91,0.00,,,0.24,Wunderground v.1.15,2013-10-14 02:49:00,
2013-10-13 22:54:00,54.1,51.5,30.28,North,355,5.0,5.0,91,0.00,,,0.24,Wunderground v.1.15,2013-10-14 02:54:00,
2013-10-13 23:04:00,54.1,51.5,30.28,NNE,13,6.0,6.0,91,0.00,,,0.24,Wunderground v.1.15,2013-10-14 03:04:00,
2013-10-13 23:09:00,54.1,51.5,30.28,NNE,19,6.0,6.0,91,0.00,,,0.24,Wunderground v.1.15,2013-10-14 03:09:00,
2013-10-13 23:15:00,54.1,51.5,30.28,NNE,15,6.0,6.0,91,0.00,,,0.24,Wunderground v.1.15,2013-10-14 03:15:00,
2013-10-13 23:20:00,54.1,51.5,30.28,NNE,22,5.0,6.0,91,0.00,,,0.24,Wunderground v.1.15,2013-10-14 03:20:00,
2013-10-13 23:29:00,54.1,51.5,30.28,NNE,20,5.0,5.0,91,0.00,,,0.24,Wunderground v.1.15,2013-10-14 03:29:00,
2013-10-13 23:34:00,54.0,51.4,30.28,NNE,16,5.0,6.0,91,0.00,,,0.24,Wunderground v.1.15,2013-10-14 03:34:00,
2013-10-13 23:39:00,54.1,51.5,30.28,North,9,6.0,6.0,91,0.00,,,0.24,Wunderground v.1.15,2013-10-14 03:39:00,
2013-10-13 23:44:00,54.1,51.5,30.28,NNE,19,6.0,6.0,91,0.00,,,0.24,Wunderground v.1.15,2013-10-14 03:44:00,
2013-10-13 23:54:00,54.0,51.4,30.28,NNE,21,6.0,6.0,91,0.00,,,0.24,Wunderground v.1.15,2013-10-14 03:54:00,